Weather History for Findlay, OH

Change the Weather History Date:

Sunday, September 2, 2012

  Actual Average Record
Temperature  
Mean Temperature 76 °F -  
Max Temperature 81 °F 79 °F 100 °F (1953)
Min Temperature 71 °F 59 °F 43 °F (1949)
Cooling Degree Days 11    
Growing Degree Days 26 (Base 50)    
Moisture  
Dew Point 70 °F    
Average Humidity 86    
Maximum Humidity 100    
Minimum Humidity 69    
Precipitation  
Precipitation 0.16 in - - ()
Sea Level Pressure  
Sea Level Pressure 29.96 in    
Wind  
Wind Speed 8 mph (East)    
Max Wind Speed 13 mph    
Max Gust Speed -    
Visibility 10 miles    
Events Rain , Thunderstorm    
Averages and records for this station are not official NWS values.
T = Trace of Precipitation, MM = Missing Value Source: NWS Daily Summary

Daily Weather History Graph

Daily Weather History Graph

Search for Another Location

Airport:

Trip Planner

Search our weather history database for the weather conditions in past years. The results will help you decide how hot, cold, wet, or windy it might be!

Date:

Astronomy

Sep. 02, 2012 Rise Set
Actual Time 7:02 AM EDT 8:04 PM EDT
Civil Twilight 6:34 AM EDT 8:32 PM EDT
Nautical Twilight 6:01 AM EDT 9:06 PM EDT
Astronomical Twilight 5:26 AM EDT 9:41 PM EDT
Moon 8:49 PM EDT (9/2) 9:11 AM EDT (9/2)
Length of Visible Light 13h 58m
Length of Day
13h 01m
Waning Gibbous, 95% of the Moon is Illuminated
Sep 2
Waning Gibbous
Sep 8
Last Quarter
Sep 15
New
Sep 22
First Quarter
Sep 29
Full

Hourly Weather History & Observations

Time (EDT) Temp. Heat Index Dew Point Humidity Pressure Visibility Wind Dir Wind Speed Gust Speed Precip Events Conditions
12:53 AM 72.0 °F - 70.0 °F 93% 30.01 in 8.0 mi North - - 0.01 in Rain Light Rain
1:08 AM 71.6 °F - 69.8 °F 94% 30.03 in 10.0 mi North - - 0.00 in Rain Light Rain
1:53 AM 72.0 °F - 70.0 °F 93% 29.99 in 10.0 mi North - - 0.00 in   Mostly Cloudy
2:53 AM 72.0 °F - 70.0 °F 93% 29.98 in 10.0 mi North - - N/A   Partly Cloudy
3:53 AM 72.0 °F - 70.0 °F 93% 29.97 in 10.0 mi North - - 0.00 in   Mostly Cloudy
4:38 AM 71.6 °F - 69.8 °F 94% 29.99 in 10.0 mi North - - 0.00 in   Overcast
4:53 AM 72.0 °F - 70.0 °F 93% 29.97 in 10.0 mi North - - 0.00 in   Overcast
5:10 AM 71.6 °F - 69.8 °F 94% 30.00 in 10.0 mi North - - N/A Thunderstorm Overcast
5:25 AM 71.6 °F - 71.6 °F 100% 30.00 in 10.0 mi North - - N/A   Overcast
5:53 AM 72.0 °F - 71.1 °F 97% 29.97 in 7.0 mi North - - 0.06 in Rain Light Rain
6:53 AM 72.0 °F - 69.1 °F 91% 29.96 in 10.0 mi North - - 0.07 in Rain Light Rain
7:53 AM 71.1 °F - 69.1 °F 93% 29.96 in 10.0 mi North - - 0.02 in   Partly Cloudy
8:53 AM 72.0 °F - 70.0 °F 93% 29.96 in - ENE 4.6 mph - N/A   Unknown
9:23 AM 71.6 °F - 69.8 °F 94% 29.98 in 10.0 mi East 5.8 mph - N/A   Overcast
9:53 AM 73.0 °F - 70.0 °F 90% 29.96 in 10.0 mi East 5.8 mph - N/A   Mostly Cloudy
10:53 AM 73.9 °F - 71.1 °F 91% 29.97 in 10.0 mi ESE 8.1 mph - N/A   Overcast
11:44 AM 75.2 °F - 71.6 °F 89% 30.00 in 10.0 mi East 9.2 mph - N/A   Mostly Cloudy
11:53 AM 75.9 °F - 71.1 °F 85% 29.97 in 10.0 mi East 10.4 mph - N/A   Overcast
12:09 PM 78.8 °F - 71.6 °F 78% 29.99 in 10.0 mi East 9.2 mph - N/A   Mostly Cloudy
12:20 PM 77.0 °F - 71.6 °F 83% 29.99 in 10.0 mi East 8.1 mph - N/A   Mostly Cloudy
12:42 PM 78.8 °F - 69.8 °F 74% 29.98 in 10.0 mi East 10.4 mph - N/A   Scattered Clouds
12:53 PM 79.0 °F - 70.0 °F 74% 29.96 in 10.0 mi East 10.4 mph - N/A   Scattered Clouds
1:53 PM 80.1 °F 83.6 °F 71.1 °F 74% 29.95 in 10.0 mi ENE 11.5 mph - N/A   Partly Cloudy
2:53 PM 80.1 °F 83.8 °F 72.0 °F 76% 29.93 in 10.0 mi East 8.1 mph - N/A   Clear
3:29 PM 80.6 °F 84.6 °F 71.6 °F 74% 29.94 in 10.0 mi East 10.4 mph - N/A   Mostly Cloudy
3:53 PM 80.1 °F 83.8 °F 72.0 °F 76% 29.91 in 10.0 mi ENE 8.1 mph - N/A   Overcast
4:53 PM 81.0 °F 84.4 °F 70.0 °F 69% 29.90 in 10.0 mi ENE 12.7 mph - N/A   Scattered Clouds
5:53 PM 81.0 °F 84.9 °F 71.1 °F 72% 29.89 in 10.0 mi ENE 10.4 mph - N/A   Scattered Clouds
6:53 PM 80.1 °F 83.2 °F 70.0 °F 71% 29.88 in 10.0 mi ENE 10.4 mph - N/A   Clear
7:53 PM 78.1 °F - 70.0 °F 76% 29.90 in 10.0 mi ENE 8.1 mph - N/A   Clear
8:53 PM 75.9 °F - 71.1 °F 85% 29.91 in 10.0 mi NE 10.4 mph - N/A   Clear
9:53 PM 73.9 °F - 70.0 °F 87% 29.91 in 10.0 mi ENE 10.4 mph - N/A   Clear
10:53 PM 73.0 °F - 69.1 °F 87% 29.91 in 10.0 mi ENE 8.1 mph - N/A   Clear
11:53 PM 72.0 °F - 69.1 °F 91% 29.91 in 10.0 mi ENE 10.4 mph - N/A   Clear